EW0609 Weather Reports


time (UTC)temp
C
wind
direction
speed
KPH
gust
KPH
rain 1hr
cm
rain 24hr
cm
rain mn
cm
humidity
%
barometer
mb
20260502232904 20 348 3.2 8.0 0.00 0.00 0.00 34 1018.6
20260502232817 19 106 1.6 6.4 0.00 0.00 0.00 34 1018.6
20260502231224 20 221 3.2 14.5 0.00 0.00 0.00 28 1018.6
20260502231113 20 219 6.4 11.3 0.00 0.00 0.00 31 1018.6
20260502230226 20 238 6.4 11.3 0.00 0.00 0.00 31 1018.6
20260502225724 20 199 4.8 16.1 0.00 0.00 0.00 33 1018.6
20260502225226 20 235 4.8 16.1 0.00 0.00 0.00 35 1018.6
20260502224724 20 250 3.2 16.1 0.00 0.00 0.00 32 1018.6
20260502224616 21 238 6.4 17.7 0.00 0.00 0.00 31 1018.6
20260502224028 22 226 6.4 16.1 0.00 0.03 0.00 24 1018.7
20260502223858 22 213 8.0 17.7 0.00 0.00 0.00 26 1018.8
20260502222724 23 161 8.0 16.1 0.00 0.03 0.00 23 1018.7
20260502222224 22 206 3.2 20.9 0.00 0.03 0.00 23 1018.7
20260502222113 22 152 8.0 20.9 0.00 0.03 0.00 22 1018.8
20260502221225 22 227 4.8 14.5 0.00 0.03 0.00 25 1019.0
20260502220724 22 248 3.2 14.5 0.00 0.03 0.00 25 1019.1
20260502220224 22 145 4.8 14.5 0.00 0.03 0.00 23 1019.2
20260502215723 22 142 3.2 8.0 0.00 0.03 0.00 21 1019.1
20260502215226 23 333 3.2 9.7 0.00 0.03 0.00 24 1019.2
20260502214724 22 17 6.4 16.1 0.00 0.03 0.00 25 1019.2
20260502214609 22 347 8.0 16.1 0.00 0.03 0.00 26 1019.3
20260502213724 22 41 1.6 19.3 0.00 0.03 0.00 24 1019.4
20260502213224 22 97 8.0 19.3 0.00 0.03 0.00 25 1019.4
20260502212724 22 226 6.4 17.7 0.00 0.03 0.00 24 1019.5
20260502212617 22 213 4.8 11.3 0.00 0.03 0.00 22 1019.6
20260502211725 22 323 0.0 9.7 0.00 0.03 0.00 25 1019.6
20260502211223 22 268 4.8 9.7 0.00 0.03 0.00 22 1019.8
20260502211107 22 134 4.8 9.7 0.00 0.03 0.00 21 1020.0
20260502210223 22 216 4.8 6.4 0.00 0.03 0.00 24 1020.1
20260502205725 21 25 3.2 9.7 0.00 0.03 0.00 30 1020.1
20260502205224 21 100 6.4 16.1 0.00 0.03 0.00 24 1020.2
20260502204724 21 120 6.4 16.1 0.00 0.03 0.00 23 1020.2
20260502204225 22 99 6.4 16.1 0.00 0.03 0.00 26 1020.3
20260502204113 22 272 4.8 16.1 0.00 0.03 0.00 25 1020.4
20260502203224 22 0 3.2 11.3 0.00 0.03 0.00 24 1020.3
20260502202724 22 0 3.2 11.3 0.00 0.03 0.00 26 1020.5
20260502202225 22 326 6.4 11.3 0.00 0.03 0.00 26 1020.5
20260502201724 22 1 3.2 9.7 0.00 0.03 0.00 27 1020.5
20260502201223 21 158 3.2 9.7 0.00 0.03 0.00 22 1020.5
20260502201111 21 261 3.2 11.3 0.00 0.03 0.00 29 1020.7
20260502200224 22 240 1.6 16.1 0.00 0.03 0.00 25 1020.6
20260502195725 23 309 6.4 16.1 0.00 0.03 0.00 21 1020.7
20260502195503 22 330 6.4 8.0 0.00 0.03 0.00 19 1020.9
20260502195352 22 357 8.0 14.5 0.00 0.03 0.00 21 1020.7
20260502194616 22 240 3.2 11.3 0.00 0.03 0.00 21 1020.7
20260502193723 22 140 0.0 14.5 0.00 0.03 0.00 21 1020.9
20260502193224 21 343 1.6 17.7 0.00 0.03 0.00 24 1021.0
20260502193119 22 102 6.4 17.7 0.00 0.03 0.00 21 1021.1
20260502192223 23 82 6.4 14.5 0.00 0.03 0.00 21 1021.1
20260502192106 22 31 3.2 14.5 0.00 0.03 0.00 22 1021.2
20260502191224 22 93 4.8 9.7 0.00 0.03 0.00 21 1021.2
20260502190724 22 86 4.8 8.0 0.00 0.03 0.00 20 1021.3
20260502190225 22 41 0.0 6.4 0.00 0.03 0.00 24 1021.4
20260502190114 21 299 3.2 8.0 0.00 0.03 0.00 25 1021.4
20260502185223 21 180 3.2 8.0 0.00 0.03 0.00 22 1021.5
20260502184723 22 337 1.6 11.3 0.00 0.03 0.00 24 1021.5
20260502184223 22 21 1.6 11.3 0.00 0.03 0.00 23 1021.5
20260502183723 22 149 3.2 8.0 0.00 0.03 0.00 22 1021.6
20260502183325 21 210 1.6 11.3 0.00 0.03 0.00 25 1021.7
20260502183224 21 16 1.6 6.4 0.00 0.03 0.00 26 1021.7
20260502182224 21 86 3.2 11.3 0.00 0.03 0.00 23 1021.7
20260502182119 21 141 4.8 14.5 0.00 0.03 0.00 27 1022.0
20260502181223 20 123 1.6 14.5 0.00 0.03 0.00 25 1022.0
20260502180724 20 175 1.6 14.5 0.00 0.03 0.00 26 1022.1
20260502180617 20 209 6.4 14.5 0.00 0.03 0.00 25 1022.0
20260502170223 20 324 3.2 17.7 0.00 0.03 0.00 38 1022.5
20260502164225 19 233 6.4 19.3 0.00 0.03 0.00 42 1022.5
20260502163723 19 248 8.0 19.3 0.00 0.03 0.00 38 1022.6
20260502163606 19 219 8.0 17.7 0.00 0.03 0.00 39 1022.6
20260502162723 19 314 4.8 11.3 0.00 0.03 0.00 41 1022.7
20260502162223 19 312 6.4 16.1 0.00 0.03 0.00 44 1022.6
20260502162008 18 341 6.4 19.3 0.00 0.03 0.00 42 1022.6
20260502161852 19 223 3.2 16.1 0.00 0.03 0.00 42 1022.6
20260502160724 18 341 8.0 19.3 0.00 0.03 0.00 44 1022.5
20260502160225 17 354 6.4 16.1 0.00 0.03 0.00 44 1022.5
20260502151723 15 204 9.7 20.9 0.00 0.03 0.00 50 1022.6
20260502151225 16 310 9.7 20.9 0.00 0.03 0.00 51 1022.6
20260502150725 15 345 4.8 16.1 0.00 0.03 0.00 53 1022.7
20260502150225 15 255 8.0 20.9 0.00 0.03 0.00 53 1022.6
20260502130724 8 264 4.8 9.7 0.00 0.03 0.00 75 1022.1
20260502130606 7 275 4.8 9.7 0.00 0.03 0.00 75 1022.2
20260502123724 6 293 6.4 9.7 0.00 0.03 0.00 79 1022.0
20260502123612 6 264 6.4 9.7 0.00 0.03 0.00 79 1021.7
20260502123112 6 266 4.8 8.0 0.00 0.03 0.00 80 1021.7
20260502122224 6 264 4.8 9.7 0.00 0.03 0.00 80 1021.7
20260502122118 6 274 4.8 9.7 0.00 0.03 0.00 80 1021.6
20260502121224 6 272 4.8 9.7 0.00 0.03 0.00 80 1021.5
20260502120723 5 276 4.8 8.0 0.00 0.03 0.00 81 1021.5
20260502120223 5 262 4.8 8.0 0.00 0.03 0.00 81 1021.5
20260502115725 5 252 4.8 9.7 0.00 0.03 0.00 81 1021.5
20260502115223 6 272 4.8 9.7 0.00 0.05 0.00 80 1021.5
20260502114724 6 244 4.8 9.7 0.00 0.05 0.00 80 1021.5
20260502114223 6 289 4.8 9.7 0.00 0.05 0.00 80 1021.5
20260502114112 6 243 4.8 9.7 0.00 0.05 0.00 80 1021.5
20260502113224 6 283 4.8 9.7 0.00 0.05 0.00 81 1021.4
20260502112724 6 254 4.8 8.0 0.00 0.05 0.00 81 1021.4
20260502112222 6 223 3.2 9.7 0.00 0.05 0.00 82 1021.4
20260502111725 6 274 6.4 9.7 0.00 0.05 0.00 82 1021.3
20260502111227 5 252 4.8 8.0 0.00 0.08 0.00 82 1021.3
20260502110725 5 251 3.2 8.0 0.00 0.08 0.00 82 1021.3
20260502110223 5 266 1.6 8.0 0.00 0.10 0.00 83 1021.4
20260502110111 5 217 3.2 8.0 0.00 0.10 0.00 83 1021.5
20260502105223 5 257 3.2 6.4 0.00 0.10 0.00 82 1021.4
20260502104722 6 272 4.8 8.0 0.00 0.10 0.00 82 1021.5
20260502104225 6 228 3.2 9.7 0.00 0.10 0.00 82 1021.5
20260502104114 6 248 6.4 9.7 0.00 0.10 0.00 82 1021.5
20260502103609 6 247 3.2 8.0 0.00 0.10 0.00 83 1021.4
20260502102724 6 268 4.8 8.0 0.00 0.10 0.00 83 1021.5
20260502102223 5 261 4.8 8.0 0.00 0.10 0.00 85 1021.4
20260502101723 5 257 3.2 6.4 0.00 0.10 0.00 85 1021.5
20260502101614 5 252 1.6 4.8 0.00 0.10 0.00 85 1021.4
20260502101108 5 274 1.6 4.8 0.00 0.10 0.00 85 1021.5
20260502100224 5 261 3.2 4.8 0.00 0.10 0.00 84 1021.5
20260502100111 5 265 1.6 4.8 0.00 0.10 0.00 83 1021.3
20260502090724 5 262 1.6 3.2 0.00 0.10 0.00 84 1021.2
20260502090611 6 271 1.6 3.2 0.00 0.10 0.00 84 1021.2
20260502071225 7 259 3.2 9.7 0.00 0.10 0.00 78 1021.6
20260502070724 8 268 4.8 11.3 0.00 0.10 0.00 78 1021.7
20260502070222 7 261 3.2 11.3 0.00 0.10 0.00 79 1021.6
20260502065722 7 292 4.8 11.3 0.00 0.10 0.00 79 1021.6
20260502065618 7 271 6.4 11.3 0.00 0.10 0.00 80 1021.7
20260502064723 7 266 3.2 8.0 0.00 0.10 0.00 80 1021.7
20260502064224 7 271 3.2 8.0 0.00 0.10 0.00 81 1021.6
20260502063723 7 262 3.2 8.0 0.00 0.10 0.00 81 1021.7
20260502063612 7 276 4.8 6.4 0.00 0.10 0.00 80 1021.9
20260502062723 7 283 3.2 8.0 0.00 0.10 0.00 80 1021.9
20260502062222 7 275 4.8 9.7 0.00 0.10 0.00 81 1021.7
20260502061959 6 279 0.0 6.4 0.00 0.10 0.00 83 1021.7
20260502061853 7 281 4.8 9.7 0.00 0.10 0.00 82 1021.9
20260502060724 6 274 3.2 6.4 0.00 0.10 0.00 83 1021.9
20260502060609 6 265 1.6 4.8 0.00 0.10 0.00 82 1021.7
20260502055724 6 262 1.6 6.4 0.00 0.10 0.00 82 1022.0
20260502055222 6 269 3.2 6.4 0.00 0.10 0.00 82 1021.9
20260502054725 6 269 3.2 4.8 0.00 0.10 0.00 82 1021.7
20260502054224 6 261 1.6 4.8 0.00 0.10 0.00 82 1021.7
20260502053722 6 240 0.0 1.6 0.00 0.10 0.00 82 1021.7
20260502053611 6 266 0.0 0.0 0.00 0.10 0.00 82 1021.7
20260502053011 6 266 0.0 3.2 0.00 0.10 0.00 81 1021.7
20260502052855 6 266 0.0 0.0 0.00 0.10 0.00 82 1021.9
20260502051724 7 266 0.0 4.8 0.00 0.10 0.00 81 1021.7
20260502051223 7 268 3.2 4.8 0.00 0.10 0.00 81 1021.6
20260502050724 7 278 3.2 4.8 0.00 0.10 0.00 82 1021.7
20260502050611 7 295 3.2 4.8 0.00 0.10 0.00 82 1021.7
20260502050119 6 305 3.2 4.8 0.00 0.10 0.10 83 1021.6
20260502045222 6 289 3.2 4.8 0.00 0.10 0.10 83 1021.6
20260502044722 6 290 0.0 0.0 0.00 0.10 0.10 84 1021.6
20260502044225 6 282 0.0 0.0 0.00 0.10 0.10 84 1021.5
20260502043725 6 286 0.0 0.0 0.00 0.10 0.10 84 1021.5
20260502043222 6 290 0.0 0.0 0.00 0.10 0.10 83 1021.5
20260502042722 6 290 0.0 0.0 0.00 0.10 0.10 83 1021.4
20260502042222 6 290 0.0 0.0 0.00 0.10 0.10 83 1021.4
20260502041721 6 290 0.0 0.0 0.00 0.10 0.10 83 1021.4
20260502041223 7 310 0.0 0.0 0.00 0.10 0.10 82 1021.3
20260502041109 7 319 0.0 0.0 0.00 0.10 0.10 82 1021.3
20260502040607 7 319 0.0 0.0 0.00 0.10 0.10 82 1021.3
20260502040107 7 319 0.0 0.0 0.00 0.10 0.10 82 1021.2
20260502035222 7 319 0.0 0.0 0.00 0.10 0.10 81 1021.2
20260502034722 7 319 0.0 0.0 0.00 0.10 0.10 80 1021.2
20260502034224 7 319 0.0 0.0 0.00 0.10 0.10 79 1021.4
20260502033722 7 319 0.0 0.0 0.00 0.10 0.10 79 1021.4
20260502033606 7 319 0.0 0.0 0.00 0.10 0.10 78 1021.2
20260502033106 7 319 0.0 0.0 0.00 0.10 0.10 77 1021.3
20260502032222 7 319 0.0 0.0 0.00 0.10 0.10 77 1021.2
20260502031722 8 319 0.0 4.8 0.00 0.10 0.10 76 1021.2
20260502031222 8 319 0.0 4.8 0.00 0.10 0.10 76 1021.3
20260502030722 8 327 1.6 3.2 0.00 0.10 0.10 76 1021.2
20260502030605 8 334 0.0 4.8 0.00 0.10 0.10 75 1021.2
20260502025722 8 354 1.6 4.8 0.00 0.10 0.10 74 1021.1
20260502025222 8 303 1.6 4.8 0.00 0.10 0.10 74 1021.1
20260502025100 8 345 0.0 3.2 0.00 0.10 0.10 73 1021.1
20260502024223 9 324 0.0 4.8 0.00 0.10 0.10 73 1021.1
20260502023723 9 355 1.6 4.8 0.00 0.10 0.10 73 1021.1
20260502023222 9 330 0.0 6.4 0.00 0.10 0.10 72 1021.0
20260502022724 9 340 1.6 6.4 0.00 0.10 0.10 72 1021.1
20260502022223 10 326 1.6 8.0 0.00 0.10 0.10 71 1020.9
20260502021721 10 302 1.6 8.0 0.00 0.10 0.10 71 1020.9
20260502021222 10 336 4.8 8.0 0.00 0.10 0.10 70 1020.9
20260502020723 10 337 3.2 9.7 0.00 0.10 0.10 70 1020.7
20260502020614 10 333 4.8 9.7 0.00 0.10 0.10 69 1020.6
20260502015723 10 353 3.2 8.0 0.00 0.10 0.10 69 1020.5
20260502015222 10 337 0.0 8.0 0.00 0.10 0.10 68 1020.4
20260502014723 11 314 1.6 6.4 0.00 0.10 0.10 68 1020.4
20260502014222 10 0 3.2 9.7 0.00 0.10 0.10 68 1020.3
20260502013723 10 321 4.8 9.7 0.00 0.10 0.10 68 1020.2
20260502013223 11 341 1.6 9.7 0.00 0.10 0.10 68 1020.2
20260502012722 11 345 1.6 9.7 0.00 0.10 0.10 67 1020.1
20260502012222 11 351 4.8 16.1 0.00 0.10 0.10 67 1020.0
20260502012114 11 317 4.8 16.1 0.00 0.10 0.10 67 1020.0
20260502011222 11 0 8.0 16.1 0.00 0.10 0.10 67 1019.7
20260502010723 11 0 6.4 14.5 0.00 0.10 0.10 67 1019.8
20260502010613 11 344 6.4 14.5 0.00 0.10 0.10 66 1019.7
20260502005722 11 343 8.0 17.7 0.00 0.10 0.10 66 1019.7
20260502005221 11 337 9.7 17.7 0.00 0.10 0.10 65 1019.7
20260502004724 12 326 4.8 14.5 0.00 0.10 0.10 65 1019.6
20260502004222 12 333 6.4 17.7 0.00 0.10 0.10 65 1019.6
20260502003723 12 345 8.0 17.7 0.00 0.10 0.10 65 1019.6
20260502003223 12 353 6.4 16.1 0.00 0.10 0.10 64 1019.5
20260502002724 12 321 6.4 14.5 0.00 0.10 0.10 64 1019.6
20260502002222 12 345 6.4 14.5 0.00 0.10 0.10 63 1019.5
20260502001723 12 338 6.4 16.1 0.00 0.10 0.10 63 1019.5
20260502001222 12 357 8.0 16.1 0.00 0.10 0.10 63 1019.5
20260502000724 12 348 4.8 14.5 0.00 0.10 0.10 64 1019.5
20260502000222 12 337 6.4 11.3 0.00 0.10 0.10 64 1019.5
20260501235725 12 282 6.4 14.5 0.00 0.10 0.10 63 1019.5
20260501235357 13 357 3.2 9.7 0.00 0.10 0.10 63 1019.5
20260501235347 12 348 6.4 14.5 0.00 0.10 0.10 64 1019.5
20260501235307 12 341 6.4 14.5 0.00 0.10 0.10 64 1019.5
20260501233722 12 355 6.4 9.7 0.00 0.10 0.10 64 1019.4
20260501233222 12 334 4.8 8.0 0.03 0.10 0.10 64 1019.3